When you browse on this site, cookies collect data to enhance your experience and personalize the content and advertising you see.
Visit our Privacy Policy to learn more. By continuing to use the site, you agree to this use of cookies and data.
  • In Austria
  • List of Countries
  • For 7 days
  • Water Temperature
  • Weather Map
  • News
  • Weather Widgets
  • user-avatar
    Login

    Hourly Weather Opole

    Today, 9 April, Thursday

    Time Temperature Precipitation Wind Pressure Humidity
    00:00 +9°C° 0 mm 2 mps 752 mmHg 51%
    01:00 +10°C° 0 mm 1 mps 752 mmHg 52%
    02:00 +9°C° 0 mm 1 mps 751 mmHg 53%
    03:00 +9°C° 0 mm 1 mps 751 mmHg 54%
    04:00 +8°C° 0 mm 2 mps 751 mmHg 56%
    05:00 +9°C° 0 mm 2 mps 751 mmHg 55%
    06:00 +10°C° 0 mm 2 mps 751 mmHg 55%
    07:00 +12°C° 0 mm 2 mps 751 mmHg 54%
    08:00 +14°C° 0 mm 2 mps 750 mmHg 49%
    09:00 +16°C° 0 mm 2 mps 750 mmHg 44%
    10:00 +18°C° 0 mm 3 mps 750 mmHg 38%
    11:00 +19°C° 0 mm 3 mps 750 mmHg 38%
    12:00 +20°C° 0 mm 4 mps 750 mmHg 38%
    13:00 +21°C° 0 mm 5 mps 750 mmHg 38%
    14:00 +20°C° 0.1 mm 5 mps 750 mmHg 42%
    15:00 +20°C° 0.1 mm 5 mps 749 mmHg 45%
    16:00 +20°C° 0.1 mm 5 mps 749 mmHg 49%
    17:00 +17°C° 0 mm 5 mps 750 mmHg 53%
    18:00 +15°C° 0 mm 4 mps 750 mmHg 57%
    19:00 +14°C° 0 mm 4 mps 750 mmHg 61%
    20:00 +12°C° 0 mm 3 mps 751 mmHg 65%
    21:00 +11°C° 0 mm 3 mps 751 mmHg 69%
    22:00 +10°C° 0 mm 3 mps 752 mmHg 72%
    23:00 +9°C° 0 mm 2 mps 752 mmHg 76%

    Tomorrow, 10 April, Friday

    Time Temperature Precipitation Wind Pressure Humidity
    00:00 +8°C° 0 mm 2 mps 753 mmHg 79%
    01:00 +7°C° 0 mm 2 mps 753 mmHg 82%
    02:00 +7°C° 0 mm 2 mps 753 mmHg 80%
    03:00 +6°C° 0 mm 2 mps 753 mmHg 78%
    04:00 +6°C° 0 mm 2 mps 753 mmHg 76%
    05:00 +6°C° 0 mm 2 mps 753 mmHg 71%
    06:00 +6°C° 0 mm 2 mps 754 mmHg 67%
    07:00 +7°C° 0 mm 2 mps 754 mmHg 62%
    08:00 +8°C° 0 mm 2 mps 754 mmHg 54%
    09:00 +10°C° 0 mm 2 mps 754 mmHg 46%
    10:00 +12°C° 0 mm 2 mps 754 mmHg 38%
    11:00 +12°C° 0 mm 3 mps 754 mmHg 36%
    12:00 +13°C° 0 mm 3 mps 753 mmHg 34%
    13:00 +14°C° 0 mm 3 mps 753 mmHg 31%
    14:00 +14°C° 0 mm 3 mps 753 mmHg 33%
    15:00 +13°C° 0 mm 3 mps 752 mmHg 35%
    16:00 +13°C° 0 mm 3 mps 752 mmHg 36%
    17:00 +13°C° 0 mm 2 mps 752 mmHg 41%
    18:00 +10°C° 0 mm 2 mps 752 mmHg 46%
    19:00 +10°C° 0 mm 1 mps 752 mmHg 51%
    20:00 +9°C° 0 mm 1 mps 752 mmHg 53%
    21:00 +8°C° 0 mm 1 mps 752 mmHg 56%
    22:00 +7°C° 0 mm 0 mps 752 mmHg 58%
    23:00 +7°C° 0 mm 1 mps 752 mmHg 60%

    Day after tomorrow, 11 April, Saturday

    Time Temperature Precipitation Wind Pressure Humidity
    00:00 +7°C° 0 mm 1 mps 752 mmHg 61%
    01:00 +7°C° 0 mm 1 mps 752 mmHg 62%
    02:00 +6°C° 0 mm 1 mps 753 mmHg 65%
    03:00 +6°C° 0 mm 1 mps 753 mmHg 67%
    04:00 +5°C° 0 mm 1 mps 753 mmHg 70%
    05:00 +6°C° 0 mm 1 mps 753 mmHg 68%
    06:00 +6°C° 0 mm 2 mps 753 mmHg 66%
    07:00 +6°C° 0 mm 2 mps 753 mmHg 64%
    08:00 +8°C° 0 mm 2 mps 754 mmHg 59%
    09:00 +10°C° 0 mm 2 mps 754 mmHg 53%
    10:00 +12°C° 0 mm 2 mps 754 mmHg 48%
    11:00 +13°C° 0 mm 2 mps 754 mmHg 45%
    12:00 +14°C° 0 mm 2 mps 754 mmHg 42%
    13:00 +15°C° 0 mm 2 mps 754 mmHg 39%
    14:00 +15°C° 0 mm 2 mps 753 mmHg 39%
    15:00 +15°C° 0 mm 2 mps 753 mmHg 40%
    16:00 +15°C° 0 mm 2 mps 753 mmHg 40%
    17:00 +13°C° 0 mm 1 mps 753 mmHg 46%
    18:00 +12°C° 0 mm 1 mps 753 mmHg 51%
    19:00 +10°C° 0 mm 1 mps 753 mmHg 56%
    20:00 +9°C° 0 mm 1 mps 753 mmHg 58%
    21:00 +9°C° 0 mm 1 mps 753 mmHg 59%
    22:00 +7°C° 0 mm 0 mps 753 mmHg 61%
    23:00 +7°C° 0 mm 0 mps 753 mmHg 62%

    12 April, Sunday

    Time Temperature Precipitation Wind Pressure Humidity
    00:00 +7°C° 0 mm 1 mps 753 mmHg 63%
    01:00 +7°C° 0 mm 1 mps 752 mmHg 64%
    02:00 +7°C° 0 mm 1 mps 752 mmHg 65%
    03:00 +7°C° 0 mm 1 mps 752 mmHg 66%
    04:00 +6°C° 0 mm 1 mps 751 mmHg 67%
    05:00 +7°C° 0 mm 1 mps 751 mmHg 65%
    06:00 +7°C° 0 mm 2 mps 751 mmHg 64%
    07:00 +8°C° 0 mm 2 mps 751 mmHg 62%
    08:00 +12°C° 0 mm 2 mps 750 mmHg 56%
    09:00 +14°C° 0 mm 2 mps 750 mmHg 49%
    10:00 +16°C° 0 mm 3 mps 750 mmHg 43%
    11:00 +17°C° 0 mm 2 mps 749 mmHg 41%
    12:00 +18°C° 0 mm 2 mps 749 mmHg 39%
    13:00 +20°C° 0 mm 2 mps 748 mmHg 36%
    14:00 +20°C° 0 mm 2 mps 748 mmHg 38%
    15:00 +20°C° 0 mm 3 mps 747 mmHg 40%
    16:00 +20°C° 0 mm 3 mps 747 mmHg 42%
    17:00 +18°C° 0 mm 3 mps 746 mmHg 51%
    18:00 +16°C° 0 mm 3 mps 746 mmHg 60%
    19:00 +13°C° 0 mm 3 mps 745 mmHg 68%
    20:00 +12°C° 0 mm 3 mps 745 mmHg 70%
    21:00 +12°C° 0 mm 3 mps 745 mmHg 72%
    22:00 +11°C° 0 mm 3 mps 745 mmHg 74%
    23:00 +11°C° 0 mm 3 mps 745 mmHg 73%

    13 April, Monday

    Time Temperature Precipitation Wind Pressure Humidity
    00:00 +10°C° 0 mm 3 mps 745 mmHg 73%
    01:00 +10°C° 0 mm 3 mps 744 mmHg 73%
    02:00 +10°C° 0 mm 3 mps 744 mmHg 73%
    03:00 +10°C° 0 mm 3 mps 743 mmHg 72%
    04:00 +10°C° 0 mm 3 mps 743 mmHg 71%
    05:00 +10°C° 0 mm 3 mps 743 mmHg 70%
    06:00 +11°C° 0 mm 3 mps 743 mmHg 68%
    07:00 +12°C° 0 mm 3 mps 743 mmHg 67%
    08:00 +14°C° 0 mm 3 mps 742 mmHg 63%
    09:00 +16°C° 0 mm 3 mps 742 mmHg 59%
    10:00 +18°C° 0 mm 3 mps 742 mmHg 56%
    11:00 +19°C° 0.2 mm 4 mps 742 mmHg 54%
    12:00 +19°C° 0.2 mm 4 mps 741 mmHg 51%
    13:00 +20°C° 0.2 mm 4 mps 741 mmHg 49%
    14:00 +19°C° 0.6 mm 5 mps 741 mmHg 54%
    15:00 +17°C° 0.6 mm 5 mps 741 mmHg 60%
    16:00 +16°C° 0.6 mm 5 mps 740 mmHg 65%
    17:00 +15°C° 0.6 mm 6 mps 741 mmHg 71%
    18:00 +13°C° 0.6 mm 6 mps 741 mmHg 78%
    19:00 +10°C° 0.6 mm 6 mps 742 mmHg 84%
    20:00 +8°C° 0.1 mm 6 mps 743 mmHg 83%
    21:00 +5°C° 0.1 mm 7 mps 744 mmHg 81%
    22:00 +3°C° 0.1 mm 7 mps 746 mmHg 80%
    23:00 +2°C° 0 mm 7 mps 747 mmHg 78%

    14 April, Tuesday

    Time Temperature Precipitation Wind Pressure Humidity
    00:00 +1°C° 0 mm 6 mps 748 mmHg 75%
    01:00 -1°C° 0 mm 6 mps 749 mmHg 73%
    02:00 -1°C° 0 mm 5 mps 750 mmHg 74%
    03:00 -2°C° 0 mm 4 mps 751 mmHg 76%
    04:00 -2°C° 0 mm 3 mps 752 mmHg 77%
    05:00 -1°C° 0 mm 3 mps 753 mmHg 71%
    06:00 0°C° 0 mm 3 mps 753 mmHg 64%
    07:00 -1°C° 0 mm 4 mps 754 mmHg 58%
    08:00 +1°C° 0 mm 4 mps 754 mmHg 52%
    09:00 +3°C° 0 mm 4 mps 754 mmHg 47%
    10:00 +4°C° 0 mm 4 mps 754 mmHg 41%
    11:00 +5°C° 0 mm 4 mps 754 mmHg 41%
    12:00 +6°C° 0 mm 4 mps 754 mmHg 41%
    13:00 +6°C° 0 mm 4 mps 754 mmHg 41%
    14:00 +7°C° 0 mm 4 mps 754 mmHg 41%
    15:00 +8°C° 0 mm 3 mps 754 mmHg 41%
    16:00 +8°C° 0 mm 3 mps 753 mmHg 41%
    17:00 +7°C° 0 mm 2 mps 753 mmHg 46%
    18:00 +5°C° 0 mm 2 mps 753 mmHg 50%
    19:00 +5°C° 0 mm 1 mps 753 mmHg 55%
    20:00 +4°C° 0 mm 1 mps 753 mmHg 56%
    21:00 +3°C° 0 mm 0 mps 754 mmHg 57%
    22:00 +2°C° 0 mm 0 mps 754 mmHg 58%
    23:00 +2°C° 0 mm 0 mps 754 mmHg 59%
    Show more